Location: Castiglione Fibocchi
(43.5333°N, 11.7667°E)
Time: 18:00:56
(UTC+00:00)

Cosmos 1844 Rocket - Pass Details

Date: 15 August 2020
Orbit: 825 x 844 km, 71.0° (Epoch: 18 September)

Event Time Altitude Azimuth Distance (km) Brightness Sun altitude
Exits shadow 02:17:26 26° 185° (S) 1,568 3.7 -19.4°
Maximum altitude 02:20:33 65° 111° (ESE) 905 2.9 -19.0°
Drops below altitude 10° 02:26:03 10° 30° (NNE) 2,433 6.2 -18.2°
Sets 02:28:30 0° 28° (NNE) 3,371 7.1 -17.9°
